Temperature
29 29 28 30 31 31 32 31 31 32 34 33 32 32 32 32 31 30 29 29 27 25 24 23 22 21 20 20 19 19 18 18 18 18 18 18 18 18 18 18 18 18 18 18
29 28 30 31 32 32 31 31 31 32 33 33 32 32 32 31 31 30 29 29 27 25 24 23 21 21 20 19 19 19 18 18 18 18 18 18 18 18 18 18 18 18 18 18
29 30 31 31 31 31 31 31 31 32 32 33 32 31 31 30 29 29 29 28 27 26 24 23 21 20 20 19 19 18 18 18 18 18 18 18 18 18 18 18 18 18 18 18
30 31 31 31 31 31 30 32 32 32 31 30 31 29 29 28 27 27 28 28 27 26 25 23 22 20 20 19 19 19 18 18 18 18 18 18 18 17 18 18 18 18 18 18
30 31 31 30 31 31 31 32 32 32 31 30 30 29 28 28 26 26 27 28 28 26 25 23 22 21 20 19 19 18 18 18 18 18 18 18 18 18 18 18 18 18 18 18
31 32 32 32 32 32 32 31 31 31 30 28 28 28 27 27 27 28 28 28 27 27 25 23 22 21 20 19 19 18 18 18 18 18 17 17 17 17 17 18 18 18 17 17
30 31 32 32 31 32 31 30 28 28 28 27 27 27 27 29 30 29 29 28 28 27 25 23 22 21 20 19 18 18 18 18 17 17 17 17 17 17 17 18 18 18 18 17
29 29 31 32 31 31 31 30 28 27 27 26 25 24 27 30 30 30 29 29 28 27 25 24 22 21 20 19 19 18 18 18 17 17 17 17 17 17 17 18 18 18 18 18
29 29 32 32 32 32 30 30 31 29 28 27 26 25 26 28 29 29 30 29 28 27 26 24 23 21 20 19 19 18 18 18 17 17 17 17 17 17 17 18 18 18 18 18
30 29 31 32 32 32 32 31 30 29 27 26 26 25 25 26 27 28 29 29 28 27 26 25 23 22 21 20 19 18 18 18 18 17 17 17 17 17 17 17 18 18 18 18
30 29 30 31 30 30 30 30 29 29 29 27 26 25 25 24 25 27 29 29 28 27 26 25 23 22 21 20 19 19 18 18 18 17 17 17 17 17 17 17 18 18 18 18
30 29 29 30 31 31 31 30 30 28 28 28 27 26 26 25 26 28 29 29 28 27 26 25 23 22 21 20 19 19 18 18 17 17 17 17 17 17 17 18 18 18 18 17
29 28 27 27 29 30 30 30 30 30 29 28 27 26 26 26 26 27 29 28 28 27 26 24 23 22 21 20 19 19 18 18 18 17 17 17 17 17 17 17 17 17 17 17
28 28 27 26 26 27 27 28 29 29 28 28 28 26 26 26 26 27 27 28 28 26 25 24 23 22 21 20 19 19 18 18 18 18 17 17 17 17 17 17 17 17 17 17
28 27 27 28 28 27 27 27 28 28 29 28 28 27 26 26 26 26 27 27 27 26 25 24 23 22 21 20 19 19 19 18 18 18 18 17 17 17 17 17 17 17 17 17
27 26 27 26 27 27 26 27 27 28 29 29 29 28 28 27 26 26 26 27 27 26 25 24 22 21 20 20 19 19 19 19 18 18 18 18 17 17 17 17 17 17 17 17
27 25 25 26 26 26 25 27 28 28 29 29 28 27 27 26 25 25 25 26 25 24 24 23 22 21 20 20 19 19 19 18 18 18 18 17 17 17 17 17 17 17 17 17
25 25 25 25 25 24 27 28 28 28 28 28 28 27 27 26 24 23 23 24 23 23 23 22 22 21 20 20 19 19 18 18 18 18 17 17 17 17 17 17 17 17 17 16
25 24 24 24 24 25 26 26 26 26 26 26 26 26 25 25 24 22 21 21 21 21 21 21 21 21 20 20 19 19 18 18 18 17 17 17 17 17 17 17 16 16 16 16
25 24 23 23 23 23 24 25 26 26 24 24 25 24 24 24 23 21 19 19 19 20 20 20 20 20 20 19 19 18 18 18 17 17 17 17 17 16 16 16 16 16 16 16
23 22 22 23 23 23 23 24 25 23 22 23 23 22 22 21 20 19 18 18 18 18 18 19 19 19 19 19 18 18 18 17 17 17 17 16 16 16 16 16 16 16 16 16
22 22 22 22 22 21 22 23 22 21 21 21 21 21 20 19 18 17 17 17 17 17 17 17 17 17 18 18 18 17 17 17 16 16 16 16 16 16 16 15 15 15 15 15
21 21 21 21 20 20 21 20 20 20 20 20 20 19 19 18 17 16 16 16 16 16 16 16 16 16 16 16 16 16 16 16 16 16 16 15 15 15 15 15 15 15 14 14
21 22 21 20 20 20 19 19 18 18 18 18 18 18 17 17 16 15 15 15 14 14 15 15 15 15 15 15 15 15 15 15 15 15 15 15 15 14 14 14 14 14 14 14
20 20 20 19 19 18 18 17 17 16 16 16 16 16 16 15 14 14 14 13 13 13 13 13 13 13 13 13 14 14 14 14 14 14 14 14 14 14 14 14 14 13 13 13
19 19 19 18 17 17 16 15 15 15 15 15 15 14 14 14 13 13 12 12 12 12 12 12 12 12 12 13 13 13 13 13 14 13 13 14 14 13 13 13 13 13 13 13
Wind_Speed
16 15 16 17 18 19 18 16 13 10 6 9 10 10 8 9 9 8 8 8 9 10 11 11 11 11 11 11 11 11 11 11 9 7 8 7 6 5 5 5 8 9 9 9
16 20 20 18 17 17 17 17 15 10 9 9 10 12 9 5 6 7 7 8 10 11 11 12 11 10 11 11 11 11 10 11 10 8 8 6 6 6 6 5 7 9 8 8
21 17 18 18 18 17 17 16 15 13 11 11 13 13 8 3 3 6 8 8 10 12 13 13 12 11 11 11 11 11 11 10 10 10 8 7 6 5 6 7 7 7 8 8
20 21 15 15 17 17 16 15 15 15 13 11 12 12 6 5 5 8 9 9 10 11 13 13 13 12 12 11 11 9 10 10 10 10 10 11 9 7 7 7 7 7 7 7
18 18 18 17 16 16 15 13 14 15 14 14 12 11 6 4 4 7 11 9 10 11 12 13 13 12 12 11 10 9 9 9 9 9 11 10 9 7 6 7 8 7 6 6
19 17 16 16 15 15 13 13 13 13 13 15 12 10 7 6 8 10 9 8 9 10 12 12 11 11 11 10 10 10 10 9 9 10 10 10 10 9 8 8 9 7 6 6
19 19 16 14 14 15 14 12 10 11 11 10 8 9 7 7 7 7 8 9 11 11 12 12 12 12 11 10 10 10 10 10 10 11 11 10 10 9 9 9 9 8 7 6
16 16 18 15 15 13 15 15 12 11 9 6 4 6 7 4 5 5 7 8 11 12 12 12 12 11 11 10 10 10 10 10 10 11 10 9 9 8 7 8 8 8 7 8
11 13 15 15 15 16 15 14 15 14 14 11 5 7 7 6 2 2 6 7 9 11 12 12 13 12 11 11 9 9 9 9 9 10 10 10 9 8 8 8 7 7 6 8
14 11 10 13 13 16 16 13 9 11 11 12 7 4 3 4 1 3 6 8 9 10 12 13 12 12 11 11 9 9 8 8 8 9 9 10 9 9 8 8 9 8 8 7
16 12 11 12 13 14 13 14 12 10 10 10 8 3 2 4 6 7 6 8 9 10 11 11 11 11 11 11 10 8 8 8 8 8 8 8 8 8 8 7 8 7 7 8
12 10 10 10 10 12 13 14 13 11 11 10 8 4 2 4 9 7 4 6 8 9 10 11 11 11 11 10 10 9 8 8 8 8 8 8 8 7 8 8 8 8 7 8
6 7 9 10 10 10 11 11 12 12 11 11 10 3 2 1 6 5 3 7 8 10 11 11 10 10 10 9 9 9 9 9 9 9 9 8 8 8 8 8 8 8 8 8
4 8 11 11 6 5 9 11 12 12 11 11 9 4 3 2 4 4 1 6 8 9 9 10 10 9 9 8 8 8 8 8 8 8 8 8 8 8 8 7 7 7 7 7
6 10 12 11 7 7 10 13 14 14 14 13 9 5 6 5 4 4 2 3 8 9 10 10 10 9 9 8 8 8 7 7 7 7 7 7 7 7 7 7 6 6 7 8
6 8 11 11 9 8 12 14 14 15 14 14 11 7 2 0 1 2 1 2 4 6 9 10 10 10 9 8 8 8 7 7 6 7 7 6 6 7 7 7 7 7 6 5
7 8 11 12 10 10 13 14 13 12 12 10 7 4 1 2 2 4 4 5 4 3 5 9 9 9 9 9 8 8 7 7 7 6 6 6 6 6 5 6 6 6 6 5
7 7 8 11 11 14 7 5 6 6 7 6 5 4 3 3 5 6 7 6 6 4 3 5 8 9 9 9 9 8 8 8 7 6 6 6 6 6 5 4 5 5 4 4
7 7 7 9 12 12 7 4 6 6 5 6 5 6 5 4 5 7 10 10 8 6 5 4 4 8 9 9 9 8 8 7 7 6 6 5 5 5 5 4 4 4 5 5
7 6 8 9 9 9 3 5 6 5 3 7 7 6 5 4 2 3 7 9 9 8 7 6 6 6 7 8 9 9 8 7 6 6 6 5 5 5 5 4 3 3 4 4
7 8 11 12 10 5 4 7 7 5 2 7 7 6 5 5 4 5 7 8 8 9 8 7 8 7 7 7 8 9 8 7 6 6 7 6 5 5 5 4 4 4 4 4
5 6 8 8 9 4 9 6 5 5 6 6 6 6 6 6 7 8 8 8 8 9 9 9 10 10 9 8 9 10 8 7 7 8 8 7 6 5 5 5 4 4 4 4
2 0 1 1 1 4 8 7 6 6 6 5 5 5 5 6 7 8 9 9 9 10 9 9 11 12 11 11 11 11 9 8 9 9 9 8 8 6 6 5 4 3 3 3
1 2 1 1 1 5 7 8 8 7 6 6 5 4 5 7 9 9 9 10 10 10 10 11 12 13 12 12 11 10 9 8 9 9 8 7 7 7 7 6 5 5 4 4
3 3 2 2 2 3 7 8 8 7 7 6 6 7 8 10 11 11 12 12 11 11 11 12 13 13 13 12 11 11 9 9 9 8 7 7 8 7 7 7 7 7 6 5
3 2 2 1 3 2 4 6 7 8 8 7 8 10 11 12 14 13 13 12 12 12 12 13 14 14 13 13 12 11 10 9 8 7 6 5 5 5 6 6 7 11 9 9
Wind_Direction
216 225 233 235 236 249 268 278 277 266 231 231 255 265 234 201 203 215 207 182 166 167 167 159 160 162 162 159 162 166 167 163 162 167 171 178 178 174 169 164 167 173 175 175
220 227 236 246 250 252 261 271 276 270 252 250 261 268 260 224 213 215 209 180 166 163 165 160 160 161 164 164 167 172 174 171 172 173 176 178 177 176 174 163 166 176 175 176
227 233 228 238 248 251 254 259 268 274 275 263 268 266 262 233 240 247 214 191 176 172 168 167 166 168 169 171 177 181 179 177 181 174 171 172 171 182 170 163 169 176 175 184
233 243 243 236 241 247 250 253 261 270 270 268 270 275 249 190 215 239 232 196 179 174 168 169 170 171 173 174 177 176 179 180 180 176 177 176 179 184 177 170 167 173 178 183
232 234 239 242 242 243 252 258 262 268 270 271 270 274 276 160 197 235 228 202 179 171 164 163 168 169 172 173 174 175 175 179 179 179 182 181 183 184 175 168 160 171 180 186
244 238 234 240 243 240 245 253 260 262 265 263 271 270 262 208 201 206 200 183 173 161 152 155 157 158 165 171 175 177 177 179 181 183 186 189 188 183 178 172 165 173 176 183
238 241 235 234 240 232 229 237 247 247 245 258 294 277 260 214 177 176 176 177 165 155 152 155 157 162 168 175 176 177 177 182 184 186 190 194 191 188 185 178 174 176 181 183
229 233 228 223 228 233 225 233 239 255 265 265 292 274 279 256 127 138 158 166 159 156 155 159 162 164 169 174 175 176 179 183 185 187 188 191 190 190 189 189 181 182 190 186
236 231 222 218 219 234 235 234 246 257 268 272 231 240 262 273 137 149 147 151 162 161 159 161 161 166 168 169 171 172 175 179 184 186 182 185 187 190 189 185 189 190 194 185
257 264 229 208 216 228 240 243 249 258 270 277 268 262 292 309 306 210 175 164 165 160 160 161 161 165 163 164 164 167 171 176 179 180 181 182 186 186 183 187 192 192 196 183
243 260 250 217 210 227 225 239 249 260 264 270 279 264 271 272 258 242 199 162 157 160 158 152 156 157 158 160 162 164 167 171 175 178 178 177 183 186 183 189 193 195 193 177
236 248 253 241 229 236 239 234 241 252 265 275 281 273 250 228 268 244 183 141 141 147 146 149 151 153 158 161 164 166 170 171 174 176 176 178 178 182 187 195 193 189 188 185
247 247 245 244 237 234 245 244 248 250 256 264 270 244 238 298 304 294 143 137 138 144 146 147 145 149 154 158 160 165 172 171 175 177 178 181 184 187 191 196 191 185 184 189
263 250 251 251 250 266 269 265 263 262 258 263 269 237 235 290 301 296 252 150 143 142 147 146 146 149 152 152 154 159 165 168 174 175 178 181 185 187 187 188 183 182 182 190
249 246 249 260 257 264 271 272 268 266 266 270 274 246 220 216 232 248 244 159 143 147 152 150 153 152 152 151 154 159 160 163 167 167 172 176 178 178 176 178 176 175 183 193
232 264 264 258 254 250 262 256 260 262 265 269 275 275 283 294 316 277 251 133 132 156 157 153 153 152 152 156 161 157 158 159 155 155 161 162 161 170 174 176 173 174 182 191
233 246 261 262 253 249 248 252 250 253 264 273 281 296 123 96 10 7 41 55 76 111 142 147 149 149 152 158 158 155 156 155 152 148 151 152 156 158 165 176 170 174 178 182
249 251 255 260 263 257 263 298 294 287 288 318 342 359 16 72 70 45 28 51 51 51 86 128 147 153 156 155 156 152 154 149 146 148 147 150 154 154 156 161 165 169 171 180
225 235 249 255 256 259 267 309 317 309 320 8 8 9 12 51 84 59 39 43 48 40 63 80 116 143 147 151 149 145 146 145 144 144 141 143 147 149 153 159 164 166 168 169
201 210 236 247 256 262 305 352 326 300 272 18 20 14 2 0 347 64 46 40 43 43 52 67 78 98 122 135 138 136 136 133 136 136 134 134 135 137 141 146 146 139 144 153
201 213 232 245 252 260 347 330 315 282 349 16 16 24 21 19 48 68 66 60 47 55 58 65 72 78 84 104 117 120 116 115 115 111 109 107 108 119 118 114 114 116 125 129
221 227 233 243 247 250 6 351 9 16 7 8 13 28 43 66 81 85 78 71 63 66 65 68 72 69 66 79 97 97 93 99 101 100 98 94 90 95 102 99 106 116 121 123
234 268 319 343 10 36 25 25 23 13 6 18 25 35 64 78 84 91 86 79 75 72 68 69 78 74 67 65 80 88 83 86 92 93 92 92 88 77 78 91 96 98 100 106
317 18 335 10 45 40 30 20 15 16 21 21 30 41 80 91 96 96 92 85 78 73 71 72 77 75 68 64 66 72 74 78 82 82 83 86 87 77 63 61 65 67 64 66
330 330 304 272 339 24 23 20 18 35 47 53 57 71 89 96 95 93 88 84 81 76 74 75 76 76 72 66 63 61 63 69 76 80 80 81 84 86 78 70 58 67 59 63
348 354 328 1 35 22 23 26 43 60 65 69 82 86 87 94 96 92 88 86 84 83 80 79 77 76 73 68 62 56 56 62 68 70 68 75 84 91 96 95 80 57 71 73
Height
1461 1464 1463 1457 1451 1449 1446 1447 1447 1440 1432 1437 1441 1441 1439 1442 1445 1449 1452 1455 1459 1464 1469 1472 1476 1479 1482 1485 1487 1491 1494 1497 1502 1506 1509 1514 1518 1522 1526 1530 1533 1536 1539 1541
1458 1459 1452 1447 1445 1444 1446 1449 1446 1438 1432 1435 1440 1440 1436 1438 1443 1446 1449 1452 1457 1462 1467 1471 1474 1477 1480 1483 1486 1488 1491 1495 1499 1502 1506 1510 1515 1520 1523 1527 1530 1534 1537 1540
1454 1446 1443 1445 1445 1447 1446 1448 1445 1442 1435 1433 1439 1443 1438 1438 1442 1446 1449 1451 1454 1459 1464 1469 1472 1475 1478 1481 1483 1486 1489 1492 1496 1500 1504 1508 1513 1517 1521 1525 1528 1531 1535 1538
1445 1440 1438 1441 1443 1443 1449 1439 1439 1440 1444 1446 1444 1457 1444 1441 1446 1447 1449 1448 1451 1456 1461 1466 1470 1473 1476 1479 1482 1484 1487 1490 1493 1497 1501 1505 1509 1513 1517 1521 1525 1529 1532 1535
1440 1436 1437 1440 1438 1437 1440 1434 1436 1438 1442 1447 1444 1455 1450 1442 1449 1448 1446 1447 1449 1453 1458 1463 1467 1471 1474 1477 1480 1482 1485 1487 1490 1494 1498 1502 1506 1511 1515 1519 1523 1526 1530 1533
1431 1428 1429 1431 1430 1431 1433 1436 1438 1438 1444 1460 1453 1457 1455 1444 1443 1441 1440 1443 1447 1451 1456 1461 1466 1469 1473 1476 1478 1480 1482 1485 1488 1492 1496 1500 1504 1508 1513 1516 1520 1524 1527 1531
1435 1428 1424 1426 1431 1430 1433 1447 1461 1464 1465 1466 1454 1456 1449 1432 1430 1432 1436 1440 1444 1449 1454 1460 1464 1468 1471 1474 1476 1478 1480 1483 1486 1489 1493 1497 1501 1505 1509 1513 1517 1521 1524 1528
1439 1438 1423 1422 1428 1432 1433 1440 1461 1473 1472 1468 1462 1466 1447 1427 1427 1430 1434 1437 1442 1447 1453 1458 1462 1466 1469 1472 1474 1476 1478 1480 1483 1486 1490 1495 1498 1502 1507 1511 1515 1518 1522 1525
1430 1431 1416 1416 1419 1424 1432 1435 1433 1446 1452 1460 1461 1455 1441 1429 1428 1431 1433 1437 1441 1445 1451 1456 1460 1464 1468 1470 1473 1475 1476 1478 1481 1484 1488 1492 1495 1499 1503 1508 1512 1516 1519 1523
1420 1428 1416 1414 1418 1420 1423 1427 1435 1446 1462 1468 1459 1458 1456 1442 1437 1434 1434 1437 1440 1444 1449 1454 1458 1463 1466 1469 1472 1474 1475 1477 1480 1483 1486 1489 1493 1497 1501 1505 1509 1513 1517 1520
1417 1428 1423 1417 1423 1426 1426 1430 1433 1437 1440 1457 1465 1463 1442 1443 1438 1435 1433 1434 1438 1442 1447 1452 1457 1461 1465 1468 1471 1473 1474 1476 1479 1482 1485 1488 1492 1495 1499 1502 1506 1510 1514 1517
1416 1422 1428 1422 1414 1415 1419 1424 1430 1445 1446 1441 1452 1456 1434 1437 1436 1433 1432 1433 1437 1441 1446 1451 1455 1460 1464 1467 1469 1472 1474 1476 1478 1481 1484 1487 1490 1493 1497 1500 1504 1507 1511 1514
1418 1425 1439 1437 1429 1422 1421 1421 1423 1426 1433 1439 1448 1453 1432 1433 1435 1431 1431 1434 1437 1441 1446 1450 1455 1459 1463 1466 1468 1471 1473 1475 1478 1480 1483 1486 1488 1491 1495 1499 1502 1505 1508 1511
1420 1426 1435 1443 1439 1433 1432 1427 1424 1428 1436 1438 1437 1442 1436 1433 1434 1431 1433 1433 1436 1441 1445 1450 1454 1458 1462 1465 1467 1470 1473 1475 1478 1480 1482 1485 1487 1490 1493 1497 1500 1503 1506 1509
1421 1428 1427 1426 1426 1429 1432 1430 1427 1428 1427 1433 1431 1433 1433 1432 1432 1432 1433 1433 1435 1441 1445 1449 1453 1457 1461 1464 1467 1470 1472 1475 1477 1479 1482 1484 1486 1488 1492 1495 1498 1501 1504 1506
1422 1429 1428 1431 1427 1427 1432 1429 1427 1426 1423 1423 1424 1428 1425 1427 1430 1431 1433 1433 1436 1440 1444 1448 1452 1456 1460 1463 1466 1469 1471 1474 1477 1479 1481 1483 1485 1488 1491 1494 1497 1500 1502 1505
1423 1430 1435 1435 1429 1432 1440 1427 1423 1421 1419 1420 1427 1428 1426 1429 1433 1434 1435 1435 1437 1441 1444 1447 1451 1455 1458 1462 1466 1468 1471 1473 1476 1478 1481 1483 1485 1488 1490 1493 1496 1498 1500 1503
1427 1431 1433 1435 1436 1448 1429 1416 1416 1419 1419 1418 1421 1424 1426 1430 1433 1436 1438 1439 1441 1442 1445 1447 1450 1454 1458 1461 1465 1468 1471 1472 1475 1478 1480 1482 1485 1487 1489 1492 1494 1496 1499 1501
1423 1431 1435 1437 1440 1435 1425 1421 1422 1425 1427 1425 1426 1427 1430 1432 1435 1440 1441 1442 1443 1444 1445 1448 1451 1454 1457 1461 1464 1467 1470 1472 1474 1477 1479 1481 1483 1485 1488 1490 1492 1495 1497 1499
1422 1427 1436 1437 1444 1446 1435 1424 1423 1426 1434 1432 1430 1432 1433 1434 1437 1445 1445 1445 1445 1446 1447 1449 1451 1453 1456 1459 1463 1466 1469 1472 1474 1476 1478 1481 1483 1485 1487 1489 1491 1493 1496 1498
1429 1433 1436 1437 1441 1438 1432 1428 1427 1439 1443 1437 1436 1437 1438 1440 1443 1447 1446 1447 1447 1448 1449 1450 1452 1454 1457 1460 1462 1465 1469 1471 1474 1476 1478 1480 1482 1484 1486 1488 1490 1492 1494 1496
1433 1436 1436 1436 1443 1446 1435 1432 1438 1443 1440 1439 1440 1441 1441 1443 1444 1446 1448 1449 1449 1451 1452 1452 1454 1456 1458 1460 1463 1466 1469 1472 1474 1476 1478 1480 1482 1484 1486 1487 1489 1491 1493 1495
1432 1433 1434 1438 1443 1440 1439 1441 1442 1442 1442 1442 1442 1443 1444 1445 1447 1448 1450 1451 1452 1454 1454 1455 1456 1458 1460 1462 1464 1467 1470 1473 1475 1477 1478 1480 1483 1484 1486 1487 1489 1491 1493 1494
1431 1430 1432 1437 1438 1441 1443 1443 1443 1443 1443 1444 1444 1445 1446 1447 1449 1451 1452 1454 1455 1456 1457 1458 1459 1461 1463 1466 1468 1470 1472 1474 1476 1478 1480 1482 1484 1485 1487 1488 1489 1491 1492 1493
1434 1434 1435 1438 1441 1443 1445 1446 1445 1445 1444 1445 1446 1447 1448 1449 1451 1453 1455 1456 1458 1460 1461 1462 1464 1466 1468 1470 1472 1473 1475 1477 1478 1480 1482 1484 1485 1487 1489 1490 1491 1492 1493 1494
1437 1438 1439 1443 1445 1446 1449 1449 1447 1446 1446 1447 1447 1449 1451 1452 1454 1456 1458 1460 1462 1464 1466 1467 1469 1471 1472 1474 1476 1478 1479 1480 1481 1483 1485 1487 1488 1490 1491 1492 1493 1494 1495 1495